Showing default

ARCSTONE, 64540

Orbit data source: Space-Track

ARCSTONE, 64540 is a payload satellite owned by NASA LaRC (US) in SSO that was launched on Mon, 23 Jun 2025 UTC via an FALCON 9 launch vehicle from the Air Force Western Test Range (AFWTR). Payload-class satellites include a variety of spacecraft equipped with specific instruments for various scientific and technological missions. These include communications satellites like Starlink; space stations such as the ISS; scientific satellites like the Hubble; Earth observation satellites from companies like Planet Labs, Umbra, and HawkEye 360; GPS; miniature CubeSats for education and research; and military/defense satellites.

Loading next visibility...
Identifier
64540, 2025-135N
Orbit
SSO
Country
Flag of USUS
Related business
Manufacturer
Blue Canyon
Mission
Operational Civil Astronomy
Bus & Motor
CUBESAT 6U, Unknown motor
Mass
5 kg wet, 5 kg dry
Launch date (UTC)
2025-06-23 (4 months ago)
Launch vehicle
FALCON 9
Launch site
Air Force Western Test Range (AFWTR)
Object type
Payload
Rocket body
Debris
Shape & HBR
Box + 2 Pan, 0.7 m
Radar Cross Section
0.072 m², Medium (>0.1 m² and < 1m²)

Expand to show TLE details & history
Last TLE update: 10 hours ago

TLE from 10 hours ago
0 ARCSTONE
1 64540U 25135N   25293.85784013  .00027222  00000-0  12187-2 0  9998
2 64540  97.4495  46.5878 0002828 309.4177  50.6808 15.21235253 18508
Epoch: 2025-10-20T20:35Z
TLE epoch observation values (Epoch: 2025-10-20T20:35:17.387Z)
Latitude
-0.00001°
Longitude
68.21123°
Altitude
503.971 km
Speed
7.613 km/s
True Right ascension
03h 06m 21s
True Declination
0° 00' 00"
Sunlit
Object was in full shadow at epoch
Visualization orbit readout
Latitude
Unknown
Longitude
Unknown
Altitude
Unknown
Speed
Unknown
Apparent Right ascension
Unknown
Apparent Declination
Unknown
Sunlit
N/A
Visualization observer readout
Local Sidereal Time
01:28:15
Azimuth
Unknown
Elevation
Unknown
Doppler factor
Unknown
Orbital elements
Apogee altitude
501.024 km
Perigee altitude
497.135 km
Semi-major axis
6,877.217 km
Eccentricity
0.00028
Inclination
97.4495°
RAAN
46.5878°
Arg. of periapsis
309.4177°
True anomaly
50.70588°
Mean anomaly
50.6808°
Eccentric anomaly
50.69334°
Mean motion
3.80561 °/min
Orbital period
94.6 mins
BSTAR
0.0012187
Loading maneuver chart data...
Computing Atmospheric mass density...
Loading historical data...
Loading historical data...
Loading historical data...
Loading historical data...
Loading historical data...
Loading historical data...
Loading historical data...

Documentation

Showing up to 5 results
|